www.pogodaiklimat.ru

Погода и климат >> Архив погоды >> Гана >> Koforidua


ПОГОДА в Koforidua

  • Прогноз погоды в Koforidua
  • Монитор погоды в Koforidua
  • Климат города

АРХИВ ПОГОДЫ в Koforidua

Время (UTC), дата Ветер
(напр.,м/с)
 
Видим.   Явления Облачность Т
(С)
Тd
(С)
f
(%)
Тe
(С)
Тes
(С)
Комфортность P
(гПа)
Po
(гПа)
Тmin
(С)
Tmax
(С)
R
(мм)
R24
(мм)
S
(см)
12 11.12 ЮВ 1 3000 м мгла ясно +31.1 +18.8 48 +36 +56 опасность
солнечного
удара
1011.5 1012.0
15 11.12 ЮВ 1 3000 м мгла ясно +32.0 +19.1 46 +37 +47 очень
душно
1009.6 1010.0
18 11.12 штиль 0 4000 м мгла ясно +28.0 +20.0 62 +34 +34 очень
душно
1010.5 1011.0 +32.0
12 12.12 ЮЗ 1 3000 м мгла ясно +31.5 +21.8 56 +40 +59 опасность
солнечного
удара
1012.2 1012.0
15 12.12 ЮВ 1 3000 м мгла 4/3 500 м
[Cu med, cong Ac trans]
+32.0 +21.6 54 +40 +47 очень
душно
1012.8 1013.0
18 12.12 штиль 0 3000 м мгла ясно +29.5 +24.2 73 +41 +41 опасность
перегрева
1011.1 1011.0 +32.5
21 12.12 штиль 0 4000 м дымка ясно +26.5 +23.3 83 +36 +36 очень
душно
1013.7 1014.0
00 13.12 штиль 0 4000 м дымка ясно +24.9 +23.1 90 +33 +33 очень
душно
1013.0 1013.0
06 13.12 штиль 0 6000 м дымка 8/8 330 м
[Sc]
+23.5 +22.1 92 +30 +30 очень
душно
1012.3 1012.0 +21.4
09 13.12 СЗ 1 4000 м дымка 5/5 360 м
[Cu Sc]
+27.5 +24.1 82 +38 +43 очень
душно
1014.1 1014.0
12 13.12 СЗ 1 4000 м мгла 4/4 480 м
[Cu med, cong]
+31.6 +24.2 65 +44 +56 опасность
перегрева
1011.9 1012.0
15 13.12 ЮВ 1 3000 м мгла ясно +33.0 +23.5 58 +44 +55 опасность
перегрева
1009.3 1009.0
18 13.12 штиль 0 3000 м мгла ясно +29.8 +24.0 71 +41 +41 опасность
перегрева
1010.9 1011.0 +33.5
21 13.12 штиль 0 4000 м дымка ясно +27.0 +24.3 85 +38 +38 очень
душно
1013.6 1014.0
00 14.12 штиль 0 4000 м дымка 9/9 360 м
[Sc]
+26.7 +24.7 89 +38 +38 очень
душно
1013.0 1013.0
03 14.12 штиль 0 4000 м дымка 9/9 360 м
[Sc]
+26.2 +24.3 89 +36 +36 очень
душно
1010.8 1011.0
12 14.12 ЮВ 1 4000 м мгла 4/4 500 м
[Cu med, cong]
+31.5 +24.4 66 +44 +56 опасность
перегрева
1011.9 1012.0
15 14.12 ЮЗ 1 4000 м мгла 3/3 500 м
[Cu med, cong]
+32.5 +22.9 57 +43 +49 опасность
перегрева
1009.8 1010.0
21 14.12 штиль 0 4000 м дымка 6/6 360 м
[Sc]
+26.6 +24.1 86 +37 +37 очень
душно
1013.9 1014.0
00 15.12 С 1 20 км дымка 8/8 360 м
[Sc]
+26.2 +24.4 90 +37 +37 очень
душно
1013.9 1014.0
03 15.12 СЗ 1 4000 м дымка 9/9 360 м
[Sc]
+25.7 +24.1 91 +36 +36 очень
душно
1012.3 1012.0
09 15.12 СВ 1 4000 м мгла ясно +28.0 +23.9 78 +39 +49 очень
душно
1013.7 1014.0
12 15.12 СЗ 1 4000 м мгла 1/1 480 м
[Cu med, cong]
+31.7 +24.0 64 +44 +63 опасность
перегрева
1011.6 1012.0
18 15.12 ЮЗ 1 4000 м мгла 8/3 360 м
[Cb cap Cs]
+30.5 +24.4 70 +43 +43 опасность
перегрева
1009.8 1010.0 +33.5
21 15.12 штиль 0 4000 м дымка ясно +27.1 +24.2 84 +38 +38 очень
душно
1012.5 1013.0
00 16.12 штиль 0 6000 м дымка 9/9 360 м
[]
+26.5 +24.5 89 +37 +37 очень
душно
1012.8 1013.0
09 16.12 З 1 6000 м дымка 6/6 360 м
[Cu Sc]
+28.3 +25.5 85 +42 +46 опасность
перегрева
1012.6 1013.0
12 16.12 СЗ 1 8000 м мгла 4/4 500 м
[Cu med, cong Ci fib]
+32.0 +25.0 67 +46 +58 опасность
перегрева
1010.8 1011.0
18 16.12 Ю 1 10 км 6/5 360 м
[Sc Ac trans]
+29.9 +25.2 76 +43 +43 опасность
перегрева
1009.7 1010.0 +34.4
21 16.12 З 1 10 км 9/9 300 м
[Sc]
+27.1 +25.4 90 +39 +39 очень
душно
1012.8 1013.0
00 17.12 З 1 10 км 9/9 360 м
[Sc]
+27.1 +24.7 87 +39 +39 очень
душно
1012.6 1013.0
06 17.12 ЮЗ 1 10 км 9/9 360 м
[]
+24.8 +23.0 90 +33 +33 очень
душно
1011.4 1011.0 +24.0
18 17.12 Ю 1 8000 м мгла 8/8 360 м
[Cb cap]
+29.8 +24.7 74 +42 +42 опасность
перегрева
1009.7 1010.0 +34.0
21 17.12 ЮЗ 1 8000 м дымка 4/4 360 м
[Sc]
+27.5 +23.8 80 +38 +38 очень
душно
1012.9 1013.0
00 18.12 штиль 0 8000 м дымка 8/8 360 м
[Sc]
+26.6 +24.4 88 +37 +37 очень
душно
1012.5 1013.0
03 18.12 Ю 1 8000 м дымка 9/9 360 м
[Sc]
+25.7 +24.1 91 +36 +36 очень
душно
1011.4 1011.0
06 18.12 штиль 0 8000 м дымка 9/9 360 м
[Sc]
+25.7 +24.1 91 +36 +36 очень
душно
1012.0 1012.0 +25.0

 

Местоположение метеостанции Koforidua (Гана): широта 6.08 долгота -0.25 высота над уровнем моря 167 м.

В архиве по умолчанию представлена погода в Koforidua за последнюю неделю. Архивные данные за месяц целиком и за предыдущие месяцы, начиная с января 2011 года, Вы можете получить, выбрав интересующий диапазон дат из раскрывающегося списка и нажав кнопку "Ввод!".

Внимание! Время в таблицах - всемирное. Для получения местного времени необходимо прибавить поправку, которая в Koforidua равна 1 ч.

Смотрите также архив погоды в соседних городах и на ближайших метеорологических станциях:

Погода в Akuse (Гана) (41 км)
Погода в Accra (Гана) (54 км)
Погода в Tema (Гана) (58 км)
Погода в Akim Oda (Гана) (82 км)
Погода в Abetifi (Гана) (86 км)
Погода в Ho (Гана) (98 км)
Погода в Ada (Гана) (103 км)
Погода в Akatsi (Гана) (116 км)
Погода в Saltpond (Гана) (133 км)
Погода в Kumasi (Гана) (165 км)

Пояснения к столбцам:

Ветер - указаны скорость ветра в м/с - средняя за 10 мин, порывы в срок и между сроками (в фигурных скобках) и направление, откуда дует ветер: С - северный, СВ - северо-восточный, В - восточный, ЮВ - юго-восточный, Ю - южный, ЮЗ - юго-западный, З - западный, СЗ - северо-западный.
Видимость - горизонтальная дальность видимости в метрах или километрах. При видимости от 1 до 10 км при отсутствии осадков обычно наблюдается дымка, при ухудшении видимости до 1 км и менее - туман. В сухую погоду видимость может ухудшаться дымом, пылью или мглою.
Явления - указаны атмосферные явления, наблюдавшиеся в срок или в последний час перед сроком; фигурными скобками обозначены явления, наблюдавшиеся между сроками (за 1-3 часа до срока); квадратными скобками обозначены град или гололедные отложения с указанием их диаметра в мм.
Облачность - указаны через наклонную черту общая и нижняя облачность в баллах и высота нижней границы облаков в метрах; квадратными скобками обозначены формы облаков: Ci - перистые, Cs - перисто-слоистые, Cc - перисто-кучевые, Ac - высококучевые, As - высокослоистые, Sc - слоисто-кучевые, Ns - слоисто-дождевые, Cu - кучевые, Cb - кучево-дождевые. Подробнее классификацию облаков см. в Атласе облаков (PDF).
T - Температура воздуха - температура, измеренная на высоте 2 м над землей.
Td - Температура точки росы - температура, при понижении до которой содержащийся в воздухе водяной пар достигнет насыщения.
f - Относительная влажность воздуха - влажноcть воздуха, измеренная на высоте 2 м над землей.
Te - Эффективная температура - температура, которую ощущает одетый по сезону человек в тени. Характеристика душности погоды. При расчете учитывается влияние влажности воздуха и скорости ветра на теплоощущения человека.
Tes - Эффективная температура на солнце - температура, которую ощущает человек, с поправкой на солнечный нагрев. Характеристика знойности погоды. Зависит от высоты солнца над горизонтом, облачности и скорости ветра. Ночью, в пасмурную погоду, а также при ветре 12 м/с и более поправка равна нулю.
P - Атмосферное давление - приведенное к уровню моря атмосферное давление.
Po - Атмосферное давление - измеренное на уровне метеостанции атмосферное давление.
Tmin - Минимальная температура - минимум температуры воздуха на высоте 2 м над землей.
Tmax - Максимальная температура - максимум температуры воздуха на высоте 2 м над землей.
R - Количество осадков - Количество выпавших осадков за период времени, мм. При наведении курсора мыши на число - период времени, за который выпало указанное количество осадков.
R24 - Количество осадков - Количество выпавших осадков за 24 часа, мм.
S - Снежный покров - Высота снежного покрова, см. При наведении курсора мыши на число - состояние снежного покрова и степень покрытия местности в баллах.